| time (UTC) | temp F | wind direction | speed knots | gust knots | rain 1hr in | rain 24hr in | rain mn in | humidity % | barometer mb |
| 20260504201503 | 61 | 236 | 6.1 | 13.9 | 0.00 | 0.00 | 0.00 | 63 | 1010.4 |
| 20260504200006 | 61 | 230 | 4.3 | 10.4 | 0.00 | 0.00 | 0.00 | 63 | 1010.6 |
| 20260504193005 | 63 | 218 | 4.3 | 12.2 | 0.00 | 0.00 | 0.00 | 60 | 1010.7 |
| 20260504191503 | 62 | 228 | 7.8 | 17.4 | 0.00 | 0.00 | 0.00 | 61 | 1010.9 |
| 20260504184503 | 64 | 231 | 3.5 | 11.3 | 0.00 | 0.00 | 0.00 | 59 | 1011.2 |
| 20260504183005 | 64 | 195 | 4.3 | 11.3 | 0.00 | 0.00 | 0.00 | 60 | 1011.3 |
| 20260504181504 | 64 | 237 | 3.5 | 9.6 | 0.00 | 0.00 | 0.00 | 58 | 1011.4 |
| 20260504180007 | 64 | 196 | 3.5 | 9.6 | 0.00 | 0.00 | 0.00 | 58 | 1011.6 |
| 20260504174503 | 64 | 196 | 2.6 | 6.1 | 0.00 | 0.00 | 0.00 | 58 | 1011.6 |
| 20260504173004 | 64 | 196 | 2.6 | 7.0 | 0.00 | 0.00 | 0.00 | 57 | 1011.8 |
| 20260504081502 | 51 | 236 | 2.6 | 7.0 | 0.00 | 0.00 | 0.00 | 56 | 1013.7 |
| 20260504030011 | 54 | 225 | 0.9 | 2.6 | 0.00 | 0.00 | 0.00 | 53 | 1012.3 |
| 20260504024508 | 54 | 272 | 0.9 | 2.6 | 0.00 | 0.00 | 0.00 | 55 | 1012.3 |
| 20260504023005 | 54 | 243 | 1.7 | 2.6 | 0.00 | 0.00 | 0.00 | 54 | 1012.3 |
| 20260504021507 | 54 | 243 | 1.7 | 3.5 | 0.00 | 0.00 | 0.00 | 52 | 1012.4 |
| 20260504014504 | 55 | 224 | 0.9 | 1.7 | 0.00 | 0.00 | 0.00 | 43 | 1012.2 |
| 20260504013004 | 55 | 225 | 0.9 | 1.7 | 0.00 | 0.00 | 0.00 | 41 | 1012.1 |
| 20260504011505 | 56 | 251 | 0.0 | 0.9 | 0.00 | 0.00 | 0.00 | 38 | 1012.0 |
| 20260504004504 | 57 | 257 | 0.0 | 0.9 | 0.00 | 0.00 | 0.00 | 32 | 1011.6 |
| 20260504003004 | 58 | 287 | 0.0 | 0.9 | 0.00 | 0.00 | 0.00 | 30 | 1011.4 |
| 20260504000005 | 59 | 305 | 1.7 | 7.0 | 0.00 | 0.00 | 0.00 | 29 | 1011.0 |
| 20260503234505 | 59 | 304 | 2.6 | 8.7 | 0.00 | 0.00 | 0.00 | 28 | 1010.8 |
| 20260503233003 | 59 | 283 | 2.6 | 8.7 | 0.00 | 0.00 | 0.00 | 27 | 1010.7 |
| 20260503231505 | 60 | 319 | 2.6 | 7.8 | 0.00 | 0.00 | 0.00 | 26 | 1010.6 |
| 20260503230005 | 60 | 314 | 4.3 | 9.6 | 0.00 | 0.00 | 0.00 | 26 | 1010.5 |
| 20260503224504 | 60 | 278 | 2.6 | 7.0 | 0.00 | 0.00 | 0.00 | 25 | 1010.6 |
| 20260503223004 | 59 | 282 | 5.2 | 13.0 | 0.00 | 0.00 | 0.00 | 26 | 1010.5 |
| 20260503221506 | 60 | 311 | 4.3 | 8.7 | 0.00 | 0.00 | 0.00 | 26 | 1010.4 |
| 20260503214504 | 59 | 294 | 5.2 | 13.9 | 0.00 | 0.00 | 0.00 | 26 | 1010.4 |
| 20260503213004 | 60 | 290 | 4.3 | 13.9 | 0.00 | 0.00 | 0.00 | 26 | 1010.2 |
| 20260503211505 | 59 | 288 | 4.3 | 12.2 | 0.00 | 0.00 | 0.00 | 28 | 1010.0 |
| 20260503210006 | 59 | 296 | 5.2 | 13.0 | 0.00 | 0.00 | 0.00 | 27 | 1010.0 |
| 20260503204505 | 59 | 333 | 5.2 | 15.6 | 0.00 | 0.00 | 0.00 | 28 | 1010.1 |
| 20260503203003 | 58 | 318 | 6.1 | 14.8 | 0.00 | 0.00 | 0.00 | 28 | 1010.1 |